Torna al catalogo

CZ-6A DEB

AttivoPO
NORAD 61474·DEBRIS·🇨🇳 China

Lanciato Aug 6, 2024 da Taiyuan Satellite Launch Center

Loading…

Prossimi Passaggi (prossime 24 ore)

TLE

AggiornatoSource: Space-Track

Epoca: Sep 14, 2026, 16:37 UTC

1 61474U 24140AAG 26257.69241423  .00002801  00000-0  65484-3 0  9997
2 61474  88.8186 243.6249 0121963  24.4639 336.2287 14.49911361107089

Traccia CZ-6A DEB in tempo reale con AllMySat

Download on the App Store